Change the Weather History Date:

Wednesday, March 14, 2012

  Actual Average Record
Temperature  
Mean Temperature 33 °F 38 °F  
Max Temperature 41 °F 48 °F 70 °F (1992)
Min Temperature 25 °F 29 °F 22 °F (1969)
Degree Days  
Heating Degree Days 32 27  
Month to date heating degree days 394 401  
Since 1 July heating degree days 5494 5600  
Cooling Degree Days 0 0  
Month to date cooling degree days 0 0  
Year to date cooling degree days 0 0  
Moisture  
Dew Point 29 °F    
Average Humidity 84    
Maximum Humidity 96    
Minimum Humidity 50    
Precipitation  
Precipitation 0.11 in 0.05 in 0.24 in (1995)
Month to date precipitation 0.64 0.75  
Year to date precipitation 4.15 4.08  
Snow  
Snow 0.00 in 0.20 in - ()
Month to date snowfall 0.4 2.3  
Since 1 July snowfall 27.9 48.7  
Snow Depth 0.00 in    
Sea Level Pressure  
Sea Level Pressure 29.85 in    
Wind  
Wind Speed 5 mph (SSW)    
Max Wind Speed 16 mph    
Max Gust Speed -    
Visibility 6 miles    
Events Fog , Snow    
T = Trace of Precipitation, MM = Missing Value Source: NWS Daily Summary

Daily Weather History Graph

Daily Weather History Graph

Search for Another Location

Airport or City:

Trip Planner

Search our weather history database for the weather conditions in past years. The results will help you decide how hot, cold, wet, or windy it might be!

Date:

Astronomy

Mar. 14, 2012 Rise Set
Actual Time 7:14 AM PDT 7:05 PM PDT
Civil Twilight 6:44 AM PDT 7:36 PM PDT
Nautical Twilight 6:08 AM PDT 8:12 PM PDT
Astronomical Twilight 5:32 AM PDT 8:48 PM PDT
Moon 2:13 AM PDT (3/14) 11:02 AM PDT (3/14)
Length of Visible Light 12h 52m
Length of Day
11h 51m
Waning Gibbous, 53% of the Moon is Illuminated
Mar 14
Waning Gibbous
Mar 14
Last Quarter
Mar 22
New
Mar 30
First Quarter
Apr 6
Full

Hourly Weather History & Observations

Time (PDT) Temp. Windchill Dew Point Humidity Pressure Visibility Wind Dir Wind Speed Gust Speed Precip Events Conditions
12:55 AM 35.1 °F 28.6 °F 18.0 °F 50% 29.86 in 10.0 mi WNW 8.1 mph - N/A   Clear
1:55 AM 32.0 °F 26.4 °F 24.1 °F 73% 29.86 in 10.0 mi SSE 5.8 mph - N/A   Clear
2:55 AM 32.0 °F - 23.0 °F 69% 29.86 in 10.0 mi Calm Calm - N/A   Clear
3:55 AM 32.0 °F - 23.0 °F 69% 29.87 in 10.0 mi Calm Calm - N/A   Clear
4:55 AM 30.9 °F 26.2 °F 23.0 °F 72% 29.86 in 10.0 mi ENE 4.6 mph - N/A   Mostly Cloudy
5:55 AM 30.9 °F 27.5 °F 23.0 °F 72% 29.88 in 10.0 mi ENE 3.5 mph - N/A   Clear
6:55 AM 28.9 °F - 23.0 °F 78% 29.89 in 10.0 mi Calm Calm - N/A   Mostly Cloudy
7:55 AM 30.0 °F 26.5 °F 24.1 °F 79% 29.90 in 10.0 mi ENE 3.5 mph - N/A   Overcast
8:55 AM 32.0 °F 26.4 °F 23.0 °F 69% 29.91 in 10.0 mi East 5.8 mph - N/A   Partly Cloudy
9:55 AM 33.1 °F 27.7 °F 23.0 °F 66% 29.91 in 10.0 mi ESE 5.8 mph - N/A   Partly Cloudy
10:55 AM 35.1 °F 28.6 °F 23.0 °F 61% 29.91 in 10.0 mi SE 8.1 mph - N/A   Overcast
11:55 AM 37.0 °F 27.7 °F 24.1 °F 59% 29.89 in 10.0 mi SE 16.1 mph - N/A   Overcast
12:35 PM 35.6 °F 28.6 °F 28.4 °F 75% 29.87 in 1.8 mi SE 9.2 mph - 0.00 in Snow Light Snow
12:55 PM 35.1 °F 28.6 °F 30.0 °F 82% 29.89 in 1.0 mi SE 8.1 mph - 0.00 in Snow Light Snow
1:23 PM 33.8 °F 27.0 °F 32.0 °F 93% 29.85 in 1.8 mi SE 8.1 mph - 0.00 in Snow Light Snow
1:55 PM 34.0 °F 28.8 °F 30.9 °F 89% 29.88 in 1.2 mi ESE 5.8 mph - 0.00 in Snow Light Snow
2:09 PM 33.8 °F 28.6 °F 30.2 °F 87% 29.84 in 0.8 mi East 5.8 mph - 0.01 in Snow Light Snow
2:19 PM 33.8 °F 27.7 °F 30.2 °F 87% 29.83 in 1.0 mi ENE 6.9 mph - 0.01 in Snow Light Snow
2:36 PM 33.8 °F 28.6 °F 32.0 °F 93% 29.83 in 2.0 mi East 5.8 mph - 0.01 in Snow Light Snow
2:46 PM 33.8 °F 29.6 °F 32.0 °F 93% 29.83 in 1.5 mi South 4.6 mph - 0.01 in Snow Light Snow
2:55 PM 33.1 °F 30.0 °F 32.0 °F 96% 29.86 in 1.0 mi SSW 3.5 mph - 0.01 in Snow Light Snow
3:02 PM 33.8 °F - 32.0 °F 93% 29.82 in 0.8 mi Calm Calm - 0.01 in Snow Light Snow
3:55 PM 33.1 °F 27.7 °F 30.9 °F 92% 29.85 in 0.8 mi WSW 5.8 mph - 0.02 in Snow Light Snow
4:06 PM 33.8 °F 30.8 °F 30.2 °F 87% 29.81 in 0.2 mi West 3.5 mph - 0.00 in Fog , Snow Light Snow
4:26 PM 33.8 °F 30.8 °F 32.0 °F 93% 29.81 in 0.5 mi WNW 3.5 mph - 0.00 in Fog , Snow Light Snow
4:52 PM 33.8 °F - 32.0 °F 93% 29.81 in 1.5 mi Calm Calm - 0.00 in   Overcast
4:55 PM 33.1 °F - 32.0 °F 96% 29.84 in 1.5 mi Calm Calm - 0.00 in   Overcast
5:05 PM 33.8 °F - 32.0 °F 93% 29.81 in 3.0 mi Calm Calm - N/A   Overcast
5:15 PM 33.8 °F - 32.0 °F 93% 29.80 in 1.8 mi Calm Calm - 0.01 in Snow Light Snow
5:55 PM 33.1 °F - 32.0 °F 96% 29.84 in 1.8 mi Calm Calm - 0.01 in   Overcast
6:16 PM 33.8 °F 30.8 °F 32.0 °F 93% 29.82 in 2.5 mi West 3.5 mph - N/A   Overcast
6:35 PM 33.8 °F - 32.0 °F 93% 29.82 in 3.0 mi Calm Calm - N/A   Overcast
6:55 PM 34.0 °F - 32.0 °F 92% 29.86 in 4.0 mi Calm Calm - N/A   Overcast
7:16 PM 33.8 °F 30.8 °F 32.0 °F 93% 29.82 in 2.0 mi West 3.5 mph - N/A   Overcast
7:55 PM 34.0 °F 29.8 °F 32.0 °F 92% 29.86 in 10.0 mi WNW 4.6 mph - N/A   Overcast
8:55 PM 34.0 °F 28.0 °F 32.0 °F 92% 29.87 in 7.0 mi West 6.9 mph - N/A   Overcast
9:55 PM 34.0 °F 28.0 °F 30.9 °F 89% 29.86 in 10.0 mi West 6.9 mph - N/A   Overcast
10:24 PM 33.8 °F 27.7 °F 30.2 °F 87% 29.83 in 10.0 mi WNW 6.9 mph - N/A   Overcast
10:55 PM 34.0 °F 27.2 °F 30.9 °F 89% 29.85 in 9.0 mi WNW 8.1 mph - N/A   Overcast
11:02 PM 33.8 °F 27.0 °F 30.2 °F 87% 29.82 in 9.0 mi West 8.1 mph - N/A   Overcast
11:45 PM 33.8 °F 29.6 °F 30.2 °F 87% 29.81 in 9.0 mi NW 4.6 mph - N/A   Overcast
11:55 PM 34.0 °F 28.8 °F 30.9 °F 89% 29.83 in 10.0 mi NW 5.8 mph - N/A   Overcast